Regional Weather Roundup
Issued by NWS

Home | Current Version | Previous Version | Text Only | Print | Product List | Glossary Off
Versions: 1 2 3 4 5 6 7 8 9 10 11 12 13 14 15 16 17 18 19 20 21 22 23 24 25 26 27 28 29 30 31 32 33 34 35 36 37 38 39 40 41 42 43 44 45 46 47 48 49 50

917
ASUS43 KLMK 240810
RWRKY
KENTUCKY REGIONAL WEATHER ROUNDUP
NATIONAL WEATHER SERVICE LOUISVILLE KY
400 AM EDT WED MAY 24 2017

NOTE "FAIR" INDICATES FEW OR NO CLOUDS BELOW 12,000 FEET
WITH NO SIGNIFICANT WEATHER AND/OR OBSTRUCTIONS TO VISIBILITY.

KYZ001>023-026-027-061>063-070>075-240900-
WESTERN AND SOUTH CENTRAL KENTUCKY

CITY           SKY/WX    TMP DP  RH WIND       PRES   REMARKS
PADUCAH        CLOUDY    61  55  81 NW5       29.60S
HENDERSON      CLOUDY    63  57  81 NW6       29.58F
OWENSBORO      CLOUDY    63  57  81 NW6       29.57F
HOPKINSVILLE   DRIZZLE   64  58  80 CALM      29.57S
BOWLING GREEN  CLOUDY    63  60  90 SE6       29.57F
GLASGOW        CLOUDY    60  60 100 CALM      29.57F
$$

KYZ024-025-028>034-038-045-046-053-240900-
NORTH CENTRAL KENTUCKY

CITY           SKY/WX    TMP DP  RH WIND       PRES   REMARKS
LOUISVILLE/SDF CLOUDY    65  55  70 SE3       29.54F
LOUISVILLE/LOU PTCLDY    64  60  87 CALM      29.55F
FORT KNOX      CLOUDY    60  56  88 SE3       29.54F
$$

KYZ035>037-039>044-047>052-055>060-089>105-240900-
NORTHEAST KENTUCKY

CITY           SKY/WX    TMP DP  RH WIND       PRES   REMARKS
LEXINGTON      CLOUDY    59  56  89 S3        29.59F
COVINGTON      MOCLDY    61  58  90 S5        29.57F
FRANKFORT      PTCLDY    59  56  89 SE5       29.56F
$$

KYZ054-064>069-076>088-106>120-240900-
SOUTHEAST KENTUCKY

CITY           SKY/WX    TMP DP  RH WIND       PRES   REMARKS
JACKSON        CLOUDY    59  58  96 CALM      29.60F
LONDON         FOG       56  55  97 CALM      29.61F VSB 1/2
SOMERSET       CLOUDY    55  55 100 CALM      29.61F FOG
MIDDLESBORO    FOG       59  59 100 CALM      29.63S VSB 1/2
MONTICELLO     CLOUDY    59  58  96 W9        29.61F
$$





USA.gov is the U.S. government's official web portal to all federal, state and local government web resources and services.